Regional Weather Roundup
Issued by NWS State College, PA

Home | Current Version | Previous Version | Graphics & Text | Print | Product List | Glossary Off
Versions: 1 2 3 4 5 6 7 8 9 10 11 12 13 14 15 16 17 18 19 20 21 22 23 24 25 26 27 28 29 30 31 32 33 34 35 36 37 38 39 40 41 42 43 44 45 46 47 48 49 50

000
ASUS41 KCTP 230203
RWRCTP

REGIONAL WEATHER ROUNDUP
NATIONAL WEATHER SERVICE STATE COLLEGE PA
900 PM EST SAT NOV 22 2014

Note: "fair" indicates few or no clouds below 12,000 feet with no
significant weather and/or obstructions to visibility.

* = STATION THAT DOES NOT REPORT PRECIPITATION /E.G. RAIN...SNOW...ETC/
    THUNDER OR FOG.

PAZ002>004-007>009-013>016-020>023-029>032-230300-
WESTERN PENNSYLVANIA

CITY           SKY/WX    TMP DP  RH WIND       PRES   REMARKS
ERIE           CLOUDY    45  33  63 S20G29    30.01F
MEADVILLE      LGT RAIN  42  32  67 S8        30.05S
FRANKLIN*      CLOUDY    39  30  70 S12       30.08S
NEW CASTLE     LGT RAIN  41  33  73 S5        30.10S
BEAVER COUNTY  NOT AVBL
BUTLER*        CLOUDY    46  30  53 SW6       30.12S
PITTSBURGH INT MOCLDY    47  30  51 S6        30.10F
PITTSBURGH     MOCLDY    47  25  42 S12       30.10F
INDIANA*       CLOUDY    43  32  65 SW7       30.15S
LATROBE        CLOUDY    41  32  70 CALM      30.14F
WASHINGTON CO* MOCLDY    37  28  70 S6        30.12F
$$

PAZ004>006-010>012-017>019-024>028-033>037-041-042-045-046-049>053-230300-
CENTRAL PENNSYLVANIA

CITY           SKY/WX    TMP DP  RH WIND       PRES   REMARKS
BRADFORD       LGT RAIN  38  33  82 SW5       30.06S
DUBOIS         CLOUDY    43  32  65 SW12      30.07F
CLEARFIELD     CLOUDY    33  32  96 S3        30.11F
JOHNSTOWN      CLOUDY    46  31  55 SW9       30.12F
ALTOONA        PTCLDY    42  27  55 SW6       30.14F
STATE COLLEGE  CLOUDY    36  27  69 W8        30.14F
WILLIAMSPORT   CLOUDY    33  27  78 SW5       30.18F
SELINSGROVE    MOCLDY    37  18  46 SW3       30.20F
FT INDIANTOWN  PTCLDY    33  22  64 N2        30.23F
CAPITAL CITY   MOCLDY    32  21  64 CALM      30.23F
HARRISBURG     MOCLDY    30  21  69 E3        30.22F
YORK           FAIR      27  20  75 CALM      30.22F
$$

PAZ038>040-043-044-047-048-054-055-060>062-067>071-230300-
EASTERN PENNSYLVANIA

CITY           SKY/WX    TMP DP  RH WIND       PRES   REMARKS
SCRANTON       CLOUDY    38  18  44 SW6       30.17S
MOUNT POCONO   CLOUDY    36  15  42 W14       30.14F
ALLENTOWN      CLOUDY    41  19  41 W6        30.23F
QUAKERTOWN*    MOCLDY    39  21  48 SW7       30.23F
READING        MOCLDY    41  21  44 CALM      30.23F
LANCASTER      CLOUDY    35  24  64 CALM      30.24F
COATESVILLE    CLOUDY    39  23  52 S5        30.24F
POTTSTOWN      CLOUDY    40  20  44 S3        30.25F
BLUE BELL      CLOUDY    43  23  45 SW6       30.25F
DOYLESTOWN     MOCLDY    40  19  43 SW7       30.23F
WILLOW GROVE   NOT AVBL
NORTH PHILA    CLOUDY    45  19  35 SW9       30.28F
PHILADELPHIA   MOCLDY    43  23  45 SW12      30.28F
$$


USA.gov is the U.S. government's official web portal to all federal, state and local government web resources and services.